Location: ??????
(36.0418°N, 43.6351°E)
Time: 04:51:47
(UTC+00:00)

Cosmos 883 Rocket - Pass Details

Date: 27 June 2021
Orbit: 950 x 996 km, 83.0° (Epoch: 27 July)

Event Time Altitude Azimuth Distance (km) Brightness Sun altitude
Rises 00:26:57 0° 342° (NNW) 3,629 7.8 -14.4°
Reaches altitude 10° 00:29:42 10° 333° (NNW) 2,679 7.0 -14.0°
Maximum altitude 00:34:59 32° 272° (W) 1,579 5.3 -13.2°
Enters shadow 00:38:51 16° 220° (SW) 2,235 5.7 -12.6°
